Weather in Yekaterinovka

Russia / Samara Oblast     53°05′15″N   49°27′07″E
temp.,
°C
wind,
m/s
gust,
m/s
humid.,
%
clouds,
%
prec.,
mm/h
press.,
hPa
HPBL,
m
3 march, wed
wed301:00−2w359796 0.1 1003117
04:00−6wnw239378 0.1 100321
07:00−6wnw3395100 0.0 100334
10:00−5wnw489495 0.0 1004281
13:00−2nw688885 0.0 1005695
16:00−3nw698593 0.1 1006857
19:00−5wnw51089100 0.1 1007509
22:00−8wnw41089100 0.1 1009231
4 march, thu
thu401:00−11w459276 0.0 100977
04:00−11wsw479238 0.0 1009103
07:00−10sw5119333 0.0 1008228
10:00−6sw7139167 0.0 1007558
13:00−1sw9138798 0.0 1005913
16:000wsw9159099 0.3 10031046
19:00+1wsw81592100 0.0 1002886
22:00+1wsw81586100 0.3 1003774
5 march, fri
fri501:000sw81494100 0.3 1003715
04:00−1sw71488100 0.3 1002456
07:00−1sw71397100 1.4 1001649
10:00+1sw714100100 2.9 1000551
13:00+2wsw91699100 0.1 1000629
16:00+1wsw612100100 0.4 1003481
19:00−4nnw5991100 1.1 1006385
22:00−9nnw3492100 1.1 101056
6 march, sat
sat601:00−11n2288100 0.0 101225
04:00−10ne2288100 0.0 101234
07:00−10ene2491100 0.0 1012167
10:00−9ne3591100 0.0 1012283
13:00−7nne2483100 0.0 1012519
16:00−7nnw3389100 0.0 1011320
19:00−12nw339052 0.0 101230
22:00−14wnw128427 0.0 101320
7 march, sun
sun701:00−13wsw239365 0.0 101330
04:00−12wnw489578 0.1 1014179
07:00−18wnw349345 0.0 101543
10:00−15w348922 0.0 1016135
13:00−11ssw36840 0.0 1015273
16:00−10ssw510836 0.0 1013382
19:00−10ssw61489100 0.0 1011503
22:00−6ssw81686100 0.0 1009744